Klamath Falls, OR

10:09 AM PST on December 09, 2016 (GMT -0800)
Klamath Falls International

Weather History for KLMT - August, 2013

Change the Weather History Date:

Friday, August 23, 2013

  Actual Average Record
Temperature  
Mean Temperature 61 °F 64 °F  
Max Temperature 82 °F 82 °F 95 °F (1996)
Min Temperature 40 °F 46 °F 33 °F (1960)
Degree Days  
Heating Degree Days 4 3  
Month to date heating degree days 42 40  
Since 1 June heating degree days 221 307  
Since 1 July heating degree days 43 90  
Cooling Degree Days 0 1  
Month to date cooling degree days 47 55  
Year to date cooling degree days 265 149  
Since 1 June cooling degree days 265 148  
Growing Degree Days 10 (Base 50)    
Moisture  
Dew Point 43 °F    
Average Humidity 80    
Maximum Humidity 100    
Minimum Humidity 20    
Precipitation  
Precipitation 0.00 in 0.01 in 0.25 in (1965)
Month to date precipitation 0.11 0.27  
Year to date precipitation 4.66 9.58  
Sea Level Pressure  
Sea Level Pressure 29.98 in    
Wind  
Wind Speed 4 mph (North)    
Max Wind Speed 17 mph    
Max Gust Speed 21 mph    
Visibility 5 miles    
Events Fog    
T = Trace of Precipitation, MM = Missing Value Source: NWS Daily Summary

Daily Weather History Graph

Daily Weather History Graph

Search for Another Location

Airport or City:

Trip Planner

Search our weather history database for the weather conditions in past years. The results will help you decide how hot, cold, wet, or windy it might be!

Date:

Astronomy

Aug. 23, 2013 Rise Set
Actual Time 6:23 AM PDT 7:54 PM PDT
Civil Twilight 5:53 AM PDT 8:24 PM PDT
Nautical Twilight 5:18 AM PDT 8:59 PM PDT
Astronomical Twilight 4:40 AM PDT 9:37 PM PDT
Moon 9:11 PM PDT (8/23) 9:28 AM PDT (8/23)
Length of Visible Light 14h 30m
Length of Day
13h 31m
Waning Gibbous, 91% of the Moon is Illuminated
Aug 23
Waning Gibbous
Aug 28
Last Quarter
Sep 5
New
Sep 12
First Quarter
Sep 19
Full

Hourly Weather History & Observations

Time (PDT) Temp. Windchill Dew Point Humidity Pressure Visibility Wind Dir Wind Speed Gust Speed Precip Events Conditions
12:07 AM 46.4 °F - 44.6 °F 93% 30.06 in 4.0 mi Calm Calm - N/A   Clear
12:53 AM 46.9 °F - 44.1 °F 90% 29.98 in 10.0 mi ENE 4.6 mph - N/A   Clear
1:53 AM 46.0 °F 44.8 °F 44.1 °F 93% 29.96 in 9.0 mi ESE 3.5 mph - N/A   Clear
2:42 AM 44.6 °F - 42.8 °F 93% 30.05 in 1.5 mi Calm Calm - N/A   Clear
2:53 AM 43.0 °F - 42.1 °F 97% 29.97 in 1.0 mi Calm Calm - N/A   Clear
3:00 AM 42.8 °F - 42.8 °F 100% 30.05 in 0.8 mi Calm Calm - N/A   Mist
3:03 AM 42.8 °F - 41.0 °F 93% 30.05 in 1.2 mi Calm Calm - N/A   Partly Cloudy
3:06 AM 41.0 °F - 41.0 °F 100% 30.05 in 3.0 mi Calm Calm - N/A   Clear
3:37 AM 44.6 °F 43.1 °F 42.8 °F 93% 30.05 in 1.0 mi North 3.5 mph - N/A   Clear
3:40 AM 42.8 °F 41.1 °F 42.8 °F 100% 30.05 in 0.5 mi North 3.5 mph - N/A Fog Fog
3:48 AM 42.8 °F 40.1 °F 42.8 °F 100% 30.05 in 0.2 mi North 4.6 mph - N/A Fog Fog
3:53 AM 43.0 °F 41.3 °F 42.1 °F 97% 29.96 in 0.8 mi North 3.5 mph - N/A   Mist
3:55 AM 42.8 °F 41.1 °F 42.8 °F 100% 30.05 in 1.5 mi North 3.5 mph - N/A   Partly Cloudy
3:57 AM 42.8 °F - 42.8 °F 100% 30.05 in 3.0 mi Calm Calm - N/A   Partly Cloudy
4:01 AM 42.8 °F - 41.0 °F 93% 30.05 in 1.5 mi Calm Calm - N/A   Scattered Clouds
4:03 AM 42.8 °F - 42.8 °F 100% 30.04 in 0.8 mi Calm Calm - N/A   Mist
4:12 AM 41.0 °F - 39.2 °F 93% 30.04 in 0.2 mi Calm Calm - N/A Fog Fog
4:24 AM 41.0 °F - 41.0 °F 100% 30.04 in 0.5 mi Calm Calm - N/A Fog Fog
4:35 AM 42.8 °F - 42.8 °F 100% 30.04 in 0.2 mi Calm Calm - N/A Fog Fog
4:42 AM 42.8 °F - 42.8 °F 100% 30.04 in 0.5 mi Calm Calm - N/A Fog Fog
4:53 AM 41.0 °F - 41.0 °F 100% 29.99 in 0.8 mi Calm Calm - N/A   Mist
4:56 AM 42.8 °F - 41.0 °F 93% 30.04 in 1.2 mi Calm Calm - N/A   Partly Cloudy
5:13 AM 41.0 °F - 41.0 °F 100% 30.03 in 0.8 mi Calm Calm - N/A   Mist
5:20 AM 42.8 °F - 41.0 °F 93% 30.04 in 1.2 mi Calm Calm - N/A   Partly Cloudy
5:23 AM 41.0 °F - 41.0 °F 100% 30.04 in 3.0 mi Calm Calm - N/A   Clear
5:53 AM 39.9 °F - 39.9 °F 100% 29.99 in 2.5 mi Calm Calm - N/A   Clear
5:55 AM 39.2 °F - 39.2 °F 100% 30.04 in 1.0 mi Calm Calm - N/A   Mist
5:59 AM 41.0 °F - 39.2 °F 93% 30.04 in 0.2 mi Calm Calm - N/A Fog Fog
6:22 AM 41.0 °F - 39.2 °F 93% 30.04 in 0.5 mi Calm Calm - N/A Fog Fog
6:29 AM 41.0 °F - 39.2 °F 93% 30.04 in 0.2 mi Calm Calm - N/A Fog Fog
6:36 AM 39.2 °F - 39.2 °F 100% 30.04 in 0.2 mi Calm Calm - N/A Fog Fog
6:45 AM 39.2 °F - 39.2 °F 100% 30.04 in 0.5 mi Calm Calm - N/A Fog Fog
6:53 AM 41.0 °F - 39.9 °F 96% 30.00 in 10.0 mi Calm Calm - N/A   Clear
7:53 AM 46.0 °F 44.8 °F 45.0 °F 96% 30.00 in 10.0 mi SE 3.5 mph - N/A   Clear
8:53 AM 53.1 °F - 48.9 °F 86% 29.99 in 10.0 mi SSE 3.5 mph - N/A   Clear
9:53 AM 59.0 °F - 48.9 °F 69% 29.97 in 10.0 mi Calm Calm - N/A   Clear
10:53 AM 64.9 °F - 48.0 °F 54% 29.96 in 10.0 mi Calm Calm - N/A   Clear
11:53 AM 69.1 °F - 46.9 °F 45% 29.93 in 10.0 mi ESE 3.5 mph - N/A   Clear
12:53 PM 73.9 °F - 45.0 °F 35% 29.90 in 10.0 mi Calm Calm - N/A   Clear
1:53 PM 77.0 °F - 44.1 °F 31% 29.87 in 10.0 mi Variable 3.5 mph - N/A   Clear
2:53 PM 79.0 °F - 43.0 °F 28% 29.86 in 10.0 mi Variable 6.9 mph - N/A   Scattered Clouds
3:53 PM 81.0 °F - 36.0 °F 20% 29.83 in 10.0 mi Variable 4.6 mph - N/A   Scattered Clouds
4:53 PM 81.0 °F - 35.1 °F 19% 29.83 in 10.0 mi West 8.1 mph - N/A   Clear
5:53 PM 77.0 °F - 43.0 °F 30% 29.83 in 10.0 mi NNW 15.0 mph - N/A   Scattered Clouds
6:53 PM 75.9 °F - 43.0 °F 31% 29.81 in 10.0 mi NNW 13.8 mph - N/A   Overcast
7:53 PM 73.0 °F - 46.0 °F 38% 29.81 in 10.0 mi NW 13.8 mph - N/A   Mostly Cloudy
8:53 PM 68.0 °F - 46.9 °F 47% 29.83 in 10.0 mi WNW 8.1 mph - N/A   Mostly Cloudy
9:53 PM 61.0 °F - 46.0 °F 58% 29.85 in 10.0 mi WNW 5.8 mph - N/A   Clear
10:53 PM 60.1 °F - 46.0 °F 60% 29.84 in 10.0 mi Calm Calm - N/A   Clear
11:53 PM 57.9 °F - 48.0 °F 70% 29.84 in 10.0 mi WSW 4.6 mph - N/A   Clear